This demonstration page uses our WeatherBlox Daily Observations layout. Learn more.

Left ArrowRight Arrow

Hourly Observations for November 12, 2018

Temp ( °F °C ) Dew Point ( °F °C ) Humidity (%) Winds ( mph kmh ) Pressure ( in mb ) Visibility ( mi km ) Precip ( " mm )
12:53 am 00:53 Mostly Cloudy 45 7.2 39 3.9 80 80 N 17 28 29.99 1016 10 16 0.00 0.00
1:53 am 01:53 Cloudy 43 6.1 35 1.7 74 74 N 23 37 30.05 1018 10 16 0.00 0.00
2:14 am 02:14 Cloudy 42 5.6 35 1.7 76 76 N 22 35 30.18 1022 10 16 0.00 0.00
2:53 am 02:53 Cloudy 42 5.6 33 0.6 71 71 N 21 33 30.09 1019 10 16 0.00 0.00
3:53 am 03:53 Cloudy 40 4.4 31 -0.6 70 70 N 22 35 30.12 1020 10 16 0.00 0.00
4:14 am 04:14 Cloudy 40 4.4 31 -0.6 70 70 N 14 22 30.24 1024 10 16 0.00 0.00
4:53 am 04:53 Mostly Clear 38 3.3 31 -0.6 76 76 N 14 22 30.14 1021 10 16 0.00 0.00
5:22 am 05:22 Mostly Cloudy 38 3.3 30 -1.1 73 73 N 20 31 30.27 1025 10 16 0.00 0.00
5:53 am 05:53 Cloudy 39 3.9 30 -1.1 70 70 N 16 26 30.19 1022 10 16 0.00 0.00
6:53 am 06:53 Cloudy 38 3.3 29 -1.7 70 70 N 18 30 30.22 1023 10 16 0.00 0.00
7:06 am 07:06 Cloudy 38 3.3 28 -2.2 68 68 N 17 28 30.33 1027 10 16 0.00 0.00
7:53 am 07:53 Mostly Cloudy 37 2.8 28 -2.2 70 70 N 16 26 30.27 1025 10 16 0.00 0.00
8:53 am 08:53 Cloudy 38 3.3 27 -2.8 65 65 NNE 16 26 30.31 1027 10 16 0.00 0.00
9:53 am 09:53 Cloudy 38 3.3 27 -2.8 65 65 NNE 18 30 30.36 1028 10 16 0.00 0.00
10:42 am 10:42 Cloudy 39 3.9 26 -3.3 60 60 NNE 20 31 30.45 1031 10 16 0.00 0.00
10:53 am 10:53 Cloudy 39 3.9 26 -3.3 60 60 N 17 28 30.37 1029 10 16 0.00 0.00
11:13 am 11:13 Cloudy 38 3.3 25 -3.9 60 60 NNE 20 31 30.45 1031 10 16 0.00 0.00
11:43 am 11:43 Cloudy 38 3.3 25 -3.9 60 60 NNE 21 33 30.45 1031 10 16 0.00 0.00
11:53 am 11:53 Cloudy 39 3.9 25 -3.9 57 57 NNE 21 33 30.39 1029 10 16 0.00 0.00
12:53 pm 12:53 Cloudy 39 3.9 24 -4.4 55 55 NNE 21 33 30.39 1029 10 16 0.00 0.00
1:53 pm 13:53 Cloudy 38 3.3 23 -5 55 55 N 22 35 30.39 1029 10 16 0.00 0.00
2:53 pm 14:53 Cloudy 38 3.3 22 -5.6 52 52 NE 21 33 30.40 1029 10 16 0.00 0.00
3:53 pm 15:53 Cloudy 37 2.8 23 -5 57 57 NNE 18 30 30.42 1030 10 16 0.00 0.00
4:53 pm 16:53 Cloudy 36 2.2 20 -6.7 52 52 NNE 21 33 30.46 1032 10 16 0.00 0.00
5:53 pm 17:53 Cloudy 36 2.2 19 -7.2 50 50 NNE 21 33 30.48 1032 10 16 0.00 0.00
6:53 pm 18:53 Mostly Cloudy 34 1.1 19 -7.2 54 54 NNE 12 19 30.52 1033 10 16 0.00 0.00
7:53 pm 19:53 Mostly Cloudy 33 0.6 20 -6.7 58 58 N 13 20 30.54 1034 10 16 0.00 0.00
8:53 pm 20:53 Mostly Clear 32 0 21 -6.1 64 64 N 10 17 30.55 1035 10 16 0.00 0.00
9:53 pm 21:53 Mostly Clear 29 -1.7 22 -5.6 75 75 N 7 11 30.56 1035 10 16 0.00 0.00
10:53 pm 22:53 Clear 27 -2.8 21 -6.1 78 78 NNW 8 13 30.58 1035 10 16 0.00 0.00
11:53 pm 23:53 Clear 26 -3.3 22 -5.6 84 84 WNW 8 13 30.59 1036 10 16 0.00 0.00

Powered by AerisWeather